Location: *
(44.9308°N, 123.0197°W)
Time: 03:58:19
(UTC+00:00)

STARLINK-1043 - Pass Details

Date: 09 April 2020
Orbit: 549 x 551 km, 53.0° (Epoch: 25 May)

Event Time Altitude Azimuth Distance (km) Brightness Sun altitude
Exits shadow 12:11:38 27° 256° (WSW) 1,080 4.5 -15.0°
Maximum altitude 12:13:46 65° 331° (NNW) 609 3.8 -14.7°
Drops below altitude 10° 12:17:54 10° 54° (NE) 1,826 7.7 -14.0°
Sets 12:20:09 0° 57° (ENE) 2,722 9.1 -13.7°
